DW2802 Ogijares ES current weather conditions

sailwx.info

Wind from 333

Air temperature 23.9° C
Dewpoint 10.9° C

Last reported at 2016-Aug-25 08:43 UTC.
Time now 2016-Aug-25 09:46 UTC

Location: N 37°07' W 003°36'.
View on Google Maps.

See reports from other nearby stations

  
Tides and Currents Weather Stations Pressure Air Temp Water Temp Dewpoint Dewpoint Depression Visibility Wind Speed Wind Dir Waves Ship Positions
date/time (UTC)wind fromknots sea level pressurealtimeterstation pressurevisibilityair tempwater tempwave heightnotes
2016-Aug-25 08:43 333 23.9
2016-Aug-25 08:27 333 23.3
2016-Aug-25 08:12 333 22.8
2016-Aug-25 07:58 328 21.7
2016-Aug-25 07:42 311 21.1
2016-Aug-25 07:27 311 20.6
2016-Aug-25 07:12 311 0 gusting 3 19.4
2016-Aug-25 06:57 313 18.9
2016-Aug-25 06:42 317 0 gusting 3 18.3
2016-Aug-25 06:27 317 17.8
2016-Aug-25 06:12 317 17.2
2016-Aug-25 05:57 317 17.2
2016-Aug-25 05:42 316 17.2
2016-Aug-25 05:27 316 17.2
2016-Aug-25 05:12 316 17.2
2016-Aug-25 04:57 316 17.2
2016-Aug-25 04:42 316 17.8
2016-Aug-25 04:27 316 17.8
2016-Aug-25 04:12 316 17.8
2016-Aug-25 03:57 316 17.2
2016-Aug-25 03:42 316 17.8
2016-Aug-25 03:27 316 17.8
2016-Aug-25 03:12 316 17.8
2016-Aug-25 02:57 316 17.8
2016-Aug-25 02:42 316 18.3
2016-Aug-25 02:27 316 18.3
2016-Aug-25 02:12 316 18.3
2016-Aug-25 01:56 316 18.9
2016-Aug-25 01:41 316 18.9
2016-Aug-25 01:26 316 19.4
2016-Aug-25 01:11 316 19.4
2016-Aug-25 00:56 327 20.0
2016-Aug-25 00:41 327 20.0
2016-Aug-25 00:27 327 20.0
2016-Aug-25 00:11 327 20.0
2016-Aug-24 23:56 325 20.0
2016-Aug-24 23:41 325 20.0
2016-Aug-24 23:26 325 20.6
2016-Aug-24 23:11 325 21.1
2016-Aug-24 22:56 325 21.7
2016-Aug-24 22:41 325 22.2
2016-Aug-24 22:26 325 22.2
2016-Aug-24 22:11 325 1 gusting 4 22.8
2016-Aug-24 21:56 360 22.8
2016-Aug-24 21:41 022 23.3
2016-Aug-24 21:26 032 2 gusting 4 23.3
2016-Aug-24 21:11 030 23.9
2016-Aug-24 20:56 086 23.9
2016-Aug-24 20:41 166 23.9
2016-Aug-24 20:26 165 24.4
2016-Aug-24 20:11 164 4 gusting 7 24.4
2016-Aug-24 19:56 150 4 gusting 9 25.0
2016-Aug-24 19:41 166 5 gusting 9 25.6
2016-Aug-24 19:26 182 5 gusting 9 26.1
2016-Aug-24 19:11 199 3 gusting 7 26.7
2016-Aug-24 18:56 221 4 gusting 7 27.2
2016-Aug-24 18:41 208 5 gusting 6 27.8
2016-Aug-24 18:26 169 5 gusting 9 28.3
2016-Aug-24 18:11 159 3 gusting 8 28.9
2016-Aug-24 17:56 203 4 gusting 9 28.9
2016-Aug-24 17:41 167 2 gusting 11 29.4
2016-Aug-24 17:26 189 4 gusting 9 30.0
2016-Aug-24 17:11 221 4 gusting 8 30.6
2016-Aug-24 16:56 212 6 gusting 11 30.0
2016-Aug-24 16:41 201 4 gusting 9 30.6
2016-Aug-24 16:26 186 6 gusting 12 30.0
2016-Aug-24 16:11 176 6 gusting 12 30.0
2016-Aug-24 15:56 201 7 gusting 13 30.0
2016-Aug-24 15:41 207 9 gusting 15 30.0
2016-Aug-24 15:26 205 6 gusting 12 30.6
2016-Aug-24 15:11 211 7 gusting 13 30.6
2016-Aug-24 14:55 195 8 gusting 13 30.6
2016-Aug-24 14:40 220 6 gusting 13 30.6
2016-Aug-24 14:25 227 6 gusting 13 30.6
2016-Aug-24 14:10 264 7 gusting 13 30.0
2016-Aug-24 13:55 213 6 gusting 10 30.6
2016-Aug-24 13:41 219 3 gusting 11 30.0
2016-Aug-24 13:25 235 30.0
2016-Aug-24 13:11 268 6 gusting 10 30.6
2016-Aug-24 12:55 323 1 gusting 7 29.4
2016-Aug-24 12:40 218 3 gusting 9 29.4
2016-Aug-24 12:25 267 1 gusting 6 28.9
2016-Aug-24 12:10 292 2 gusting 8 29.4
2016-Aug-24 11:55 326 1 gusting 5 28.9
2016-Aug-24 11:40 327 1 gusting 5 28.3
2016-Aug-24 11:25 299 0 gusting 6 27.2
2016-Aug-24 11:10 284 3 gusting 6 26.7
2016-Aug-24 10:55 259 26.1
2016-Aug-24 10:40 242 1 gusting 6 26.1
2016-Aug-24 10:25 237 2 gusting 6 25.6
2016-Aug-24 10:10 235 2 gusting 6 25.6
2016-Aug-24 09:55 326 2 gusting 6 25.0
2016-Aug-24 09:39 333 2 gusting 6 25.0
2016-Aug-24 09:25 299 1 gusting 5 24.4
2016-Aug-24 09:09 295 23.3
2016-Aug-24 08:54 292 0 gusting 6 22.8
2016-Aug-24 08:39 278 22.8
2016-Aug-24 08:24 276 0 gusting 5 22.2
2016-Aug-24 08:09 275 2 gusting 5 21.7
2016-Aug-24 07:54 246 2 gusting 6 21.1
2016-Aug-24 07:39 190 0 gusting 3 21.1
2016-Aug-24 07:24 190 20.6
2016-Aug-24 07:09 190 20.0
2016-Aug-24 06:54 190 19.4
2016-Aug-24 06:39 190 18.9
2016-Aug-24 06:24 190 18.3
2016-Aug-24 06:08 190 17.8
2016-Aug-24 05:53 190 18.3
2016-Aug-24 05:38 190 18.3
2016-Aug-24 05:23 190 18.3
2016-Aug-24 05:08 190 18.3
2016-Aug-24 04:53 190 18.3
2016-Aug-24 04:39 190 18.3
2016-Aug-24 04:23 190 18.9
2016-Aug-24 04:08 190 18.9
2016-Aug-24 03:53 190 18.9
2016-Aug-24 03:38 190 19.4
2016-Aug-24 03:23 190 19.4
2016-Aug-24 03:08 190 18.9
2016-Aug-24 02:53 190 19.4
2016-Aug-24 02:38 190 19.4
2016-Aug-24 02:23 190 20.0
2016-Aug-24 02:08 190 20.0
2016-Aug-24 01:53 190 20.6
2016-Aug-24 01:38 190 20.6
2016-Aug-24 01:23 190 21.1
2016-Aug-24 01:08 190 21.7
2016-Aug-24 00:53 190 21.1
2016-Aug-24 00:38 190 21.1
2016-Aug-24 00:23 190 21.1
2016-Aug-24 00:08 190 21.1
2016-Aug-23 23:53 190 21.7
2016-Aug-23 23:38 190 21.7
2016-Aug-23 23:23 190 21.7
2016-Aug-23 23:08 190 2 gusting 4 22.2
2016-Aug-23 22:53 190 3 gusting 6 22.2
2016-Aug-23 22:38 190 2 gusting 6 22.2
2016-Aug-23 22:22 129 1 gusting 4 23.3
2016-Aug-23 22:08 069 23.3
2016-Aug-23 21:52 069 23.3
2016-Aug-23 21:37 069 23.3
2016-Aug-23 21:22 066 23.9
2016-Aug-23 21:07 046 2 gusting 6 24.4
2016-Aug-23 20:53 020 0 gusting 6 25.6
2016-Aug-23 20:37 087 26.1
2016-Aug-23 20:22 104 26.1
2016-Aug-23 20:07 128 26.1
2016-Aug-23 19:52 162 1 gusting 6 26.1
2016-Aug-23 19:37 181 3 gusting 8 26.1
2016-Aug-23 19:22 173 6 gusting 13 26.7
2016-Aug-23 19:07 160 6 gusting 13 26.7
2016-Aug-23 18:52 161 6 gusting 15 26.7
2016-Aug-23 18:37 146 8 gusting 16 27.2
2016-Aug-23 18:22 148 8 gusting 15 27.8
2016-Aug-23 18:07 158 7 gusting 16 28.3
2016-Aug-23 17:52 134 6 gusting 17 28.9
2016-Aug-23 17:37 167 9 gusting 16 29.4
2016-Aug-23 17:22 146 9 gusting 13 30.6
2016-Aug-23 17:07 185 6 gusting 10 31.1
2016-Aug-23 16:52 219 6 gusting 10 31.1
2016-Aug-23 16:37 200 6 gusting 11 31.1
2016-Aug-23 16:22 210 4 gusting 13 31.1
2016-Aug-23 16:07 221 6 gusting 13 31.7
2016-Aug-23 15:52 177 5 gusting 12 31.7
2016-Aug-23 15:37 214 6 gusting 13 31.1
2016-Aug-23 15:22 177 6 gusting 13 31.1
2016-Aug-23 15:07 159 5 gusting 11 30.6
2016-Aug-23 14:52 192 6 gusting 12 30.6
2016-Aug-23 14:37 197 6 gusting 11 30.6
2016-Aug-23 14:22 223 5 gusting 12 30.6
2016-Aug-23 14:07 234 6 gusting 14 30.6
2016-Aug-23 13:52 233 8 gusting 13 30.6
2016-Aug-23 13:37 260 6 gusting 11 30.6
2016-Aug-23 13:22 244 8 gusting 15 30.6
2016-Aug-23 13:07 250 3 gusting 7 30.6
2016-Aug-23 12:52 063 1 gusting 4 30.6
2016-Aug-23 12:37 324 4 gusting 8 30.6
2016-Aug-23 12:22 284 2 gusting 7 30.0
2016-Aug-23 12:07 307 3 gusting 11 30.0
2016-Aug-23 11:52 286 2 gusting 7 29.4
2016-Aug-23 11:36 257 5 gusting 7 29.4
2016-Aug-23 11:22 349 4 gusting 9 28.9
2016-Aug-23 11:06 292 1 gusting 8 27.8
2016-Aug-23 10:51 269 2 gusting 8 28.3
2016-Aug-23 10:36 005 1 gusting 5 28.3
2016-Aug-23 10:21 298 0 gusting 6 27.8
2016-Aug-23 10:06 292 0 gusting 7 26.7
2016-Aug-23 09:51 289 1 gusting 4 27.2
2016-Aug-23 09:43 300 1 gusting 4 27.2